Погода Тарко-Сале

Погода Тарко-Сале : погода сейчас, прогноз погоды и архив. Всё, что Вы хотите узнать о погоде Тарко-Сале!

Хотите узнать прогноз погоды Тарко-Сале? Тогда Вам сюда: Погода Тарко-Сале

Поиск расширенной информации на нашем сайте:

Другие новости

Новости СМИ2

Главная страница сайта

Новости сайта

03.07.2017

Напоминаем, что на нашем специализированном сайте Метеоцентр.Азия вы можете получить высокодетализированные автоматические прогнозы погоды по пунктам России, СНГ и мира в авиационном формате (включающие направление и скорость ветра, видимость, явления погоды, количество и форму облачности, нижнюю и верхнюю границу облачности).

Рекомендуем: http://china-dv.ru/ заказать и купить болюсы хуато.

Погода Тарко-Сале - сегодня

Время (UTC), дата Ветер
(°,м/с) 
Видим.   Явления Облачность Т
(°С)
Тd
(°С)
f(%) Тe
(°С)
Pmin
(гПа)
dP
(гПа)
Po
(мм)
O2
(г/м3)
Тmin Tmax R s Состояние
почвы
12 17.08.18 300 (СЗ) 10 км    8/0 средняя, верхняя 
[Ac trans|Ci fib]
+16.9 +6.5 50 +18  1009.8  -0.4  755  285           
18 17.08.18 310 (СЗ) 10 км    3/0 средняя 
[Ac trans]
+10.7 +8.9 89 +12  1010.3  0.2  755  291           
21 17.08.18 290 (З) 10 км    3/0 средняя 
[Ac trans]
+8.6 +8.6 100 +10  1010.4  0.1  755  294           
00 18.08.18 330 (СЗ) 4000 м  дымка  3/0 средняя 
[Ac trans]
+8.2 +8.2 100 +9  1011  0.6  756  294           
03 18.08.18 340 (С) 10 км    6/6 270 м 
[Cu Sc]
+13.2 +11.1 87 +16  1011.4  0.5  756  289  +8.1         
06 18.08.18 050 (СВ) 10 км    4/4 300 м 
[Cu Sc]
+14.7 +10.9 78 +17  1011.8  0.4  757  287           
09 18.08.18 030 (СВ) 10 км    4/4 300 м 
[Cu med, cong]
+16.1 +7.7 57 +16  1012.2  0.4  757  287           
12 18.08.18 030 (СВ) 10 км    10/4 300 м верхняя 
[Cu med, cong|Ci fib]
+15.9 +7.7 58 +17  1012.2  757  287           
18 18.08.18 360 (С) 10 км    6/0 средняя, верхняя 
[Ac As|Ci fib]
+10.1 +7.5 84 +10  1013.7  0.9  758  293           
21 18.08.18 350 (С) 10 км    6/0 средняя, верхняя 
[Ac trans|Ci fib]
+8 +6.2 88 +8  1014.1  0.4  758  296           
00 19.08.18 340 (С) 10 км    10/0 средняя 
[Ac und]
+8.5 +5.7 83 +9  1014.6  0.5  759  296           
03 19.08.18 360 (С) 10 км    10/8 660 м средняя 
[Sc|Ac As]
+8.8 +4.4 74 +9  1015.1  0.5  759  296  +7.3        сухая 
06 19.08.18 330 (СЗ) 10 км    10/8 540 м средняя 
[Sc|Ac As]
+9.6 +5.3 75 +9  1015.3  0.2  759  295           
09 19.08.18 320 (СЗ) 10 км    10/10 700 м 
[Sc]
+10.2 +5.2 71 +10  1015.8  0.5  759  294           
12 19.08.18 330 (СЗ) 10 км    9/9 700 м 
[Sc]
+10 +5.2 72 +10  1016.2  0.4  760  295           
15 19.08.18 350 (С) 10 км    9/9 570 м 
[Sc]
+8.4 +4.9 79 +8  1016.7  0.5  760  296    +10.6       
18 19.08.18 250 (З) 4000 м  дымка  ясно 
+5.1 +4.7 97 +6  1016.7  760  300           
21 19.08.18 240 (ЮЗ) 4000 м  дымка  1/0 верхняя 
[Ci fib]
+4.4 +4.4 100 +5  1016.5  -0.2  760  301           
00 20.08.18 220 (ЮЗ) 4000 м  дымка  6/0 верхняя 
[Cc]
+3.2 +3.2 100 +4  1017.1  0.5  760  302           
03 20.08.18 190 (Ю) 10 км    8/0 средняя 
[Ac cast]
+10.4 +6.8 78 +12  1016.5  -0.5  760  294  +2.6        влажная 
06 20.08.18 240 (ЮЗ) 10 км    3/0 верхняя 
[Cc]
+16.4 +8.5 59 +17  1015.1  -1.3  759  287           
09 20.08.18 240 (ЮЗ) 10 км    8/3 300 м средняя, верхняя 
[Cu med, cong|Ac cast|Cc]
+18.7 +6.5 45 +20  1014.5  -0.5  759  285           
12 20.08.18 280 (З) 10 км    3/0 верхняя 
[Cc]
+19 +6.8 45 +21  1014.1  -0.5  758  285           
18 20.08.18 тихо ()   10 км    1/0 средняя 
[Ac trans]
+9 +8.5 97 +9  1013.8  0.2  758  294           
21 20.08.18 тихо ()   10 км    4/0 средняя, верхняя 
[Ac trans|Cc]
+6.9 +6.9 100 +7  1014  0.2  758  297           
Время (UTC), дата Ветер
(°,м/с) 
Видим.   Явления Облачность Т
(°С)
Тd
(°С)
f(%) Тe
(°С)
Pmin
(гПа)
dP
(гПа)
Po
(мм)
O2
(г/м3)
Тmin Tmax R s Состояние
почвы

Для получения пояснительной информации подведите курсор к названию столбца.

ПОГОДА Тарко-Сале - архив

Всё, что Вы хотите узнать о погоде Тарко-Сале - удобно и подробно!

Выберите нужную дату (начиная с 1 января 2015* года) и нажмите кнопку "Найти".
Будут отображены архивные сводки погоды по пункту Тарко-Сале, начиная с указанной даты.


Отображать данные в формате CSV (для использования в таблицах Excel)


Внимание! Наш архив погоды предназначен исключительно для личного некоммерческого использования в познавательных целях. Если Вам необходимы официальные справки о состоянии погоды (для производственных, юридических, коммерческих и т.п. целей), обращайтесь в органы Росгидромета.

*Примечание: данная дата относится к архиву по метеостанциям СССР (Россия, СНГ, Балтия).
Архив по метеостанциям Зарубежной Европы и Азии (кроме Китая) хранится 10 дней, по другим регионам земного шара (Китай, Африка, Америка, Австралия, Океания) - 1 день.

Тарко-Сале - район местоположения метеостанции


Название, широта, долгота, высота метеостанции:
Тарко-Сале 64.9°ш. 77.8°д. 27 м над ур. моря [Российская Федерация]

Дополнительная информация

В oтличие oт бoльшинства пoгoдных сайтoв мы публикуем пoдрoбную метеoинфoрмацию в детальнoм прoфессиoнальнoм фoрмате.

Характеристики температуры и влажнoсти вoздуха измеряются на высoте 2 м в тени вдали oт зданий и деревьев.
Скoрoсть ветра измеряется на высoте 10 м (на урoвне рoста челoвека скoрoсть ветра ниже в 1.5-2 раза). Если метеoстанция нахoдится в гoрoде или в лесу, тo скoрoсть ветра занижена на 2-4 м/с пo сравнению с oткрытым местoм. Скoрoсть ветра над акватoриями крупных рек и oзёр, а также на вершинах хoлмoв на 2-5 м/с выше, чем в oбычных услoвиях.
Атмoсфернoе давление в разных тoчках местнoсти мoжет значительнo oтличаться oт давления на метеoстанции, в зависимoсти oт услoвий рельефа (при пoдъёме на 10 м давление пoнижается примернo на 1 мм рт.ст.).